Regional Weather Roundup
Issued by NWS

Home | Current Version | Previous Version | Graphics & Text | Print | Product List | Glossary Off
Versions: 1 2 3 4 5 6 7 8 9 10 11 12 13 14 15 16 17 18 19 20 21 22 23 24 25 26 27 28 29 30 31 32 33 34 35 36 37 38 39 40 41 42 43 44 45 46 47 48 49 50

000
ASUS43 KTOP 281559
RWRKS

WEATHER ROUNDUP FOR KANSAS
NATIONAL WEATHER SERVICE GOODLAND KS
1100 AM CDT THU MAY 28 2015

NOTE:  "FAIR" INDICATES FEW OR NO CLOUDS BELOW 12,000 FEET WITH NO
SIGNIFICANT WEATHER AND/OR OBSTRUCTIONS TO VISIBILITY.

KSZ001>006-013>018-027>032-041>047-281700-
NORTHWEST KANSAS

CITY           SKY/WX    TMP DP  RH WIND       PRES   REMARKS
GOODLAND       CLOUDY    66  59  78 S12       30.00F
HAYS           CLOUDY    66  57  72 E8        30.01F
HILL CITY      CLOUDY    67  59  75 SE7       30.02F
RUSSELL        LGT RAIN  69  61  75 E8        30.01R
$$

KSZ061>065-074>080-084>089-281700-
SOUTHWEST KANSAS

CITY           SKY/WX    TMP DP  RH WIND       PRES   REMARKS
DODGE CITY     CLOUDY    68  58  70 NE5       30.03S
ELKHART          N/A     67  57  70 S13         N/A
GARDEN CITY    PTSUNNY   70  56  61 S15G23    30.02R
GREAT BEND     PTSUNNY   68  61  77 SE8       30.00S
LIBERAL        CLOUDY    70  55  60 S18G26    30.03R
$$

KSZ066>073-081>083-090>101-281700-
SOUTHEAST KANSAS

CITY           SKY/WX    TMP DP  RH WIND       PRES   REMARKS
CHANUTE        LGT RAIN  68  66  93 SW9       30.11R
COFFEYVILLE    LGT RAIN  66  66 100 S8        30.12R FOG
HUTCHINSON     CLOUDY    70  64  81 SE13      30.02R
NEWTON         CLOUDY    66  61  82 SE15      30.06R
PARSONS        HVY RAIN  67  66  97 S7        30.13R FOG
WICHITA INTL   CLOUDY    69  64  84 SE13      30.03R
WICHITA JABRA  CLOUDY    68  64  87 SE14G21   30.03S
WINFIELD       CLOUDY    68  66  93 SE16      30.04F
$$

KSZ007>012-019>026-033>040-048>060-102>105-281700-
NORTHEAST KANSAS

CITY           SKY/WX    TMP DP  RH WIND       PRES   REMARKS
CONCORDIA      PTSUNNY   73  63  70 SE14      30.01S
EMPORIA        RAIN      65  63  93 S14       30.07S FOG
LAWRENCE       LGT RAIN  67  64  90 E6        30.07S
MANHATTAN      CLOUDY    69  65  86 SE3       30.03R
OLATHE IND     CLOUDY    67  63  87 E10       30.09S
OLATHE EXE     CLOUDY    67  64  90 E6        30.08S
SALINA         CLOUDY    72  64  76 S10       30.02R
TOPEKA BILLARD CLOUDY    69  65  86 E10       30.05S
TOPEKA FORBES  CLOUDY    69  65  86 SE9       30.05R
$$


USA.gov is the U.S. government's official web portal to all federal, state and local government web resources and services.